Location: Cahas Mountain Overlook
(37.0833°N, 80.1000°W)
Time: 00:47:29
(UTC-05:00)

deb Explorer IX - All Passes

Search period start: 29 November 2023 00:00
Search period end: 09 December 2023 00:00
Orbit: 523 x 938 km, 38.8° (Epoch: 28 November)

Date Brightness Start Highest point End Pass type
(mag) Time Alt. Az. Time Alt. Az. Time Alt. Az.
29 Nov - 00:43:24 10° WSW 00:48:13 88° SSE 00:53:44 10° ENE night (unlit)
29 Nov - 02:28:09 10° W 02:33:23 75° N 02:39:19 10° E visible
29 Nov - 04:12:57 10° WNW 04:18:34 69° SSW 04:24:45 10° ESE visible
29 Nov - 05:58:25 10° W 06:03:19 26° SW 06:08:27 10° SSE visible
29 Nov - 22:09:06 10° SSW 22:12:25 22° SE 22:16:02 10° E night (unlit)
29 Nov - 23:52:09 10° WSW 23:56:43 73° SSE 00:01:56 10° ENE night (unlit)
30 Nov - 01:36:46 10° W 01:41:45 73° N 01:47:26 10° E night (unlit)
30 Nov - 03:21:31 10° WNW 03:26:56 82° SSW 03:33:00 10° ESE visible
30 Nov - 05:06:36 10° W 05:11:47 34° SSW 05:17:21 10° SSE visible
30 Nov - 21:18:59 10° S 21:21:11 14° SE 21:23:28 10° ESE night (unlit)
30 Nov - 23:00:56 10° SW 23:05:14 56° SSE 23:10:06 10° E night (unlit)
01 Dec - 00:45:20 10° W 00:50:04 75° N 00:55:30 10° E night (unlit)
01 Dec - 02:30:04 10° WNW 02:35:14 87° N 02:41:06 10° ESE visible
01 Dec - 04:14:54 10° W 04:20:10 44° SSW 04:25:56 10° SE visible
01 Dec - 06:01:54 10° WSW 06:04:37 13° SW 06:07:24 10° SSW visible
01 Dec - 22:09:47 10° SW 22:13:45 40° SSE 22:18:09 10° E night (unlit)
01 Dec - 23:53:52 10° W 23:58:23 82° N 00:03:33 10° ENE night (unlit)
02 Dec - 01:38:34 10° W 01:43:29 78° N 01:49:05 10° E night (unlit)
02 Dec - 03:23:15 10° W 03:28:27 55° SSW 03:34:16 10° SE visible
02 Dec - 05:09:09 10° WSW 05:13:02 19° SW 05:17:06 10° S visible
02 Dec - 21:18:45 10° SSW 21:22:17 28° SSE 21:26:06 10° E night (unlit)
02 Dec - 23:02:21 10° WSW 23:06:42 87° SSE 23:11:35 10° ENE night (unlit)
03 Dec - 00:47:01 10° W 00:51:41 73° N 00:57:01 10° E night (unlit)
03 Dec - 02:31:38 10° WNW 02:36:41 69° SSW 02:42:24 10° ESE night (unlit)
03 Dec - 04:16:56 10° W 04:21:21 25° SSW 04:26:07 10° SSE visible
03 Dec - 20:27:57 10° S 20:30:48 19° SE 20:33:47 10° E night (unlit)
03 Dec - 22:10:51 10° WSW 22:14:59 70° SSE 22:19:36 10° ENE night (unlit)
03 Dec - 23:55:23 10° W 23:59:50 71° N 00:04:54 10° E night (unlit)
04 Dec - 01:40:01 10° WNW 01:44:51 83° SSW 01:50:22 10° ESE night (unlit)
04 Dec - 03:24:55 10° W 03:29:34 32° SSW 03:34:42 10° SSE visible
04 Dec - 19:37:48 10° SSE 19:39:17 12° SE 19:40:47 10° ESE visible
04 Dec - 21:19:21 10° SW 21:23:17 52° SSE 21:27:34 10° E night (unlit)
04 Dec - 23:03:42 10° W 23:07:58 74° N 23:12:46 10° E night (unlit)
05 Dec - 00:48:19 10° WNW 00:52:57 85° NNE 00:58:12 10° E night (unlit)
05 Dec - 02:33:01 10° W 02:37:43 42° SSW 02:43:00 10° SE night (unlit)
05 Dec - 04:20:02 10° WSW 04:22:07 12° SW 04:24:18 10° SSW visible
05 Dec - 20:27:54 10° SW 20:31:35 36° SSE 20:35:28 10° E visible
05 Dec - 22:11:57 10° W 22:16:05 82° N 22:20:39 10° ENE night (unlit)
05 Dec - 23:56:35 10° W 00:00:59 76° N 00:05:58 10° E night (unlit)
06 Dec - 01:41:10 10° W 01:45:48 54° SSW 01:51:03 10° SE night (unlit)
06 Dec - 03:26:57 10° WSW 03:30:17 17° SW 03:33:50 10° S night (unlit)
06 Dec - 19:36:35 10° SSW 19:39:51 25° SSE 19:43:13 10° E visible
06 Dec - 21:20:08 10° WSW 21:24:10 84° SSE 21:28:31 10° ENE night (unlit)
06 Dec - 23:04:46 10° W 23:08:59 70° N 23:13:42 10° E night (unlit)
07 Dec - 00:49:19 10° WNW 00:53:49 68° SSW 00:58:56 10° ESE night (unlit)
07 Dec - 02:34:29 10° W 02:38:22 23° SSW 02:42:35 10° SSE night (unlit)
07 Dec - 18:45:29 10° S 18:48:04 17° SE 18:50:40 10° ESE visible
07 Dec - 20:28:18 10° WSW 20:32:14 66° SSE 20:36:23 10° E visible
07 Dec - 22:12:51 10° W 22:16:56 69° N 22:21:25 10° E night (unlit)
07 Dec - 23:57:26 10° WNW 00:01:47 84° SSW 00:06:41 10° ESE night (unlit)
08 Dec - 01:42:15 10° W 01:46:22 30° SSW 01:50:55 10° SSE night (unlit)
08 Dec - 17:55:13 10° SSE 17:56:14 11° SE 17:57:14 10° SE visible
08 Dec - 19:36:27 10° SW 19:40:16 48° SSE 19:44:11 10° E visible
08 Dec - 21:20:51 10° W 21:24:51 73° N 21:29:08 10° E night (unlit)
08 Dec - 23:05:29 10° WNW 23:09:40 83° N 23:14:19 10° E night (unlit)
